ISS DEB, 69324

Orbit data source: Space-Track

ISS DEB, 69324 is space debris in LEO that was on an ISS related-mission or a former payload that was launched from the ISS. Debris objects in space refer to the collection of defunct objects orbiting the Earth. Examples of debris include non-operational satellites, rocket bodies, and fragments generated from explosions, collisions, or faulty payload assembly.

Loading next visibility...
Identifier
69324, 1998-067YG
Orbit
LEO
Country
Flag of CISCIS
Related business
Manufacturer
RKKE
Mission
Spacecraft
Bus & Motor
Unknown
Mass
Unknown
Launch date (UTC)
1998-11-20 (28 years ago)
Launch vehicle
Unknown
Launch site
Tyuratam Missile And Space Complex (TTMTR)
Object type
Payload
Rocket body
Debris
Shape & HBR
IRR, 1.1 m
Radar Cross Section
Medium (>0.1 m² and <1 m²)

Expand to show TLE details & history
Last TLE update: 1 day ago

TLE from 1 day ago
0 ISS DEB
1 69324U 98067YG  26208.08885652  .00472167  00000-0  30108-2 0  9995
2 69324  51.6242  97.7544 0006505 216.5200 143.5356 15.74446830578003
Epoch: 2026-07-27T02:07Z
TLE epoch observation values (Epoch: 2026-07-27T02:07:57.203Z)
Latitude
-0.00003°
Longitude
120.98859°
Altitude
350.472 km
Speed
7.698 km/s
True Right ascension
06h 31m 01s
True Declination
0° 00' 00"
Sunlit
Object was in daylight at epoch
Visualization orbit readout
Latitude
Unknown
Longitude
Unknown
Altitude
Unknown
Speed
Unknown
Apparent Right ascension
Unknown
Apparent Declination
Unknown
Sunlit
N/A
Visualization observer readout
Local Sidereal Time
17:11:31
Azimuth
Unknown
Elevation
Unknown
Doppler factor
Unknown
Orbital elements
Apogee altitude
351.096 km
Perigee altitude
342.347 km
Semi-major axis
6,724.859 km
Eccentricity
0.00065
Inclination
51.6242°
RAAN
97.7544°
Arg. of periapsis
216.52°
True anomaly
143.57987°
Mean anomaly
143.5356°
Eccentric anomaly
143.55774°
Mean motion
3.93567 °/min
Orbital period
91.47 mins
BSTAR
0.0030108
Loading maneuver chart data...
Computing Atmospheric mass density...
Loading historical data...
Loading historical data...
Loading historical data...
Loading historical data...
Loading historical data...
Loading historical data...
Loading historical data...

Documentation

Showing up to 5 results
|